Location: G�rlitz
(51.1670°N, 15.0000°E)
Time: 20:54:12
(UTC+01:00)

Envisat - Pass Details

Date: 20 February 2026
Orbit: 761 x 763 km, 98.4° (Epoch: 11 March)

Event Time Altitude Azimuth Distance (km) Brightness Sun altitude
Rises 05:00:20 0° 2° (N) 3,238 6.4 -20.0°
Reaches altitude 10° 05:04:12 10° 332° (NNW) 2,306 5.3 -19.4°
Enters shadow 05:04:41 11° 326° (NNW) 2,247 5.2 -19.3°
